Regional Weather Roundup
Issued by NWS

Home | Current Version | Previous Version | Graphics & Text | Print | Product List | Glossary Off
Versions: 1 2 3 4 5 6 7 8 9 10 11 12 13 14 15 16 17 18 19 20 21 22 23 24 25 26 27 28 29 30 31 32 33 34 35 36 37 38 39 40 41 42 43 44 45 46 47 48 49 50

758
ASUS43 KMKX 271721
RWRWI

WISCONSIN REGIONAL WEATHER ROUNDUP
NATIONAL WEATHER SERVICE MILWAUKEE/SULLIVAN WI
1200 PM CDT TUE SEP 27 2016

NOTE: "FAIR" INDICATES FEW OR NO CLOUDS BELOW 12,000 FEET WITH NO
SIGNIFICANT WEATHER AND/OR OBSTRUCTIONS TO VISIBILITY.

WIZ001-002-006>008-014>016-023>028-271800-
NORTHWEST WISCONSIN

CITY           SKY/WX    TMP DP  RH WIND       PRES   REMARKS
SUPERIOR ARPT  CLOUDY    51  46  80 NW12      29.71S
ASHLAND        CLOUDY    51  48  89 W14G21    29.67R
HAYWARD        CLOUDY    52  43  71 VRB7G17   29.70S
SIREN          RAIN      51  43  74 NW15      29.75S
CUMBERLAND     LGT RAIN  50  41  71 W20       29.74S
RICE LAKE      CLOUDY    52  43  70 W14G20    29.75S
CHETEK         NOT AVBL
LADYSMITH      CLOUDY    51  46  83 W14       29.73R HAZE
EAU CLAIRE     CLOUDY    54  44  69 W14       29.74F
MENOMONIE      CLOUDY    55  43  65 W12G23    29.77S
NEW RICHMOND   CLOUDY    55  42  62 W17       29.78S
OSCEOLA        CLOUDY    54  43  66 NW15G25   29.80F
$$

WIZ003>005-009-010-017-018-271800-
NORTH CENTRAL WISCONSIN

CITY           SKY/WX    TMP DP  RH WIND       PRES   REMARKS
MANITOWISH WTR NOT AVBL
ARBOR VITAE    CLOUDY    52  49  90 NW13      29.63S
WOODRUFF       CLOUDY    52  49  90 NW13      29.63S
RHINELANDER    LGT RAIN  50  48  93 W9        29.64S
EAGLE RIVER    DRIZZLE   48  46  95 W12G17    29.61S
LAND O LAKES   CLOUDY    49  46  87 NW10G17   29.62S
PHILLIPS       RAIN      47  47  98 W6        29.66F
TOMAHAWK       LGT RAIN  49  46  88 W9G23     29.67R
MEDFORD        CLOUDY    49  46  87 W14G21    29.69S
MERRILL        CLOUDY    50  48  95 W12       29.68R FOG
$$

WIZ029-030-035-036-043>047-271800-
CENTRAL WISCONSIN

CITY           SKY/WX    TMP DP  RH WIND       PRES   REMARKS
WAUSAU         CLOUDY    53  45  74 W13       29.67S
MOSINEE        CLOUDY    54  45  71 W16G22    29.69F
MARSHFIELD     CLOUDY    53  43  68 W16G23    29.71S
STEVENS POINT  CLOUDY    53  42  67 W12G23    29.70F
WAUPACA        CLOUDY    57  45  63 W13       29.70S
WAUTOMA        CLOUDY    57  44  62 W16G23    29.72F
WISC RAPIDS    CLOUDY    54  44  69 W15       29.73S
CAMP DOUGLAS   CLOUDY    55  43  62 W14G22    29.75S
$$

WIZ011>013-019>022-031-037>040-048>050-271800-
NORTHEAST WISCONSIN

CITY           SKY/WX    TMP DP  RH WIND       PRES   REMARKS
ANTIGO         RAIN      49  47  94 W13G18    29.65R
SHAWANO        CLOUDY    59  47  63 W13G18    29.65S
OCONTO         NOT AVBL
STURGEON BAY   CLOUDY    56  46  69 W17       29.61F
GREEN BAY      CLOUDY    58  47  66 W14       29.66R
MANITOWOC      CLOUDY    58  44  60 W16G26    29.67S
APPLETON       CLOUDY    55  43  62 W17G26    29.67S
CLINTONVILLE   NOT AVBL
OSHKOSH        CLOUDY    56  43  61 W13G21    29.70S
$$

WIZ032>034-041-042-053>061-271800-
SOUTHWEST WISCONSIN

CITY           SKY/WX    TMP DP  RH WIND       PRES   REMARKS
LA CROSSE      CLOUDY    63  43  48 W21       29.77F
SPARTA         CLOUDY    56  43  62 W14G21    29.77F
VIROQUA        PTSUNNY   59  41  51 W13G18    29.79S
BOSCOBEL       MOSUNNY   64  42  44 W10G22    29.80F
PRAIRIE DU CHI SUNNY     64  37  37 W15G23    29.81S
PLATTEVILLE    SUNNY     62  41  46 W23G31    29.82S
$$

WIZ056-057-062-063-064-067-068-271800-
SOUTH CENTRAL WISCONSIN

CITY           SKY/WX    TMP DP  RH WIND       PRES   REMARKS
REEDSBURG      NOT AVBL
BARABOO/DELLS  CLOUDY    55  39  54 NW16G24   29.76S
LONE ROCK      MOSUNNY   62  42  47 W17G23    29.78F
MINERAL POINT  SUNNY     63  39  42 W17G25    29.79F
MADISON        PTSUNNY   59  42  53 NW13G22   29.76S
MIDDLETON      NOT AVBL
WATERTOWN      CLOUDY    56  42  59 W17G24    29.74F
MONROE         SUNNY     61  37  41 W26G33    29.78F
JANESVILLE     MOSUNNY   64  39  39 W21G33    29.76F
$$

WIZ051-052-058>065-066-070>072-271800-
SOUTHEAST WISCONSIN

CITY           SKY/WX    TMP DP  RH WIND       PRES   REMARKS
MILWAUKEE      CLOUDY    62  41  46 NW20G29   29.74F
WAUKESHA       PTSUNNY   55  41  58 W17G25    29.75S
MILWAUKEE/TIMM CLOUDY    57  37  47 W17G24    29.74S
RACINE         MOSUNNY   60  40  47 W18G29    29.75S
BURLINGTON     SUNNY     61  39  45 W14G23    29.75S
KENOSHA        SUNNY     63  40  42 W20G30    29.74F
FOND DU LAC    CLOUDY    57  44  62 W12G28    29.71S
SHEBOYGAN      CLOUDY    58  44  60 W16G23    29.70R
WEST BEND      CLOUDY    55  41  58 W14G24    29.72S
JUNEAU         CLOUDY    55  42  60 W12G20    29.75S
$$

LSZ147-162-271800-
LAKE SUPERIOR

STATION/POSITION TIME  TEMP    WIND        PRES    WAVE
                       AIR SEA DIR/SP/G            HT/PER
                 (UTC) (F)     (DEG/KT/KT) (MB)    (FT/S)
W MID LAKE BUOY  1650   49 47  290/ 14/ 16 1001.7R   4/ 5
DEVILS ISLAND    1700   50     290/ 16/ 18 1003.9R
SAXON HARBOR     1600   51     280/  6/ 13 1004.1
$$

LMZ867-665-643>646-271800-
LAKE MICHIGAN

STATION/POSITION TIME  TEMP    WIND        PRES    WAVE
                       AIR SEA DIR/SP/G            HT/PER
                 (UTC) (F)     (DEG/KT/KT) (MB)    (FT/S)
CHAMBERS ISLAND  1600   56     230/ 11/ 18 1001.7F
N MID LAKE BUOY  1650   56 66  260/ 19/ 23 1000.7R   5/ 6
NORTHPORT PIER   1600   57     270/  7/ 12 1002.0S
SISTER BAY       1638   57     270/ 19/ 22   N/A
KEWAUNEE LAKESHO 1600   56     270/ 15/ 22 1003.4F
SHEBOYGAN LAKESH 1700   56     280/ 17/ 19 1005.3R
PORT WASHINGTON  1600   58     280/  6/ 22 1007.1R
ATWATER BUOY     1700   57 54  240/ 16/ 19 1006.8S
MILWAUKEE LAKESH 1610   58     270/ 20/ 25   N/A
S MID LAKE BUOY  1650   60 70  260/ 19/ 23 1006.5F   5/ 6
KENOSHA   LAKESH 1700   62     270/ 19/ 27 1007.1F
$$

TC  - TEMPERATURE IN CELSIUS
VSB - VISIBILITY IN STATUTE MILES
WCI - WIND CHILL INDEX
HX  - HEAT INDEX





USA.gov is the U.S. government's official web portal to all federal, state and local government web resources and services.